TimeCST,TemperatureF,Dew PointF,Humidity,Sea Level PressureIn,VisibilityMPH,Wind Direction,Wind SpeedMPH,Gust SpeedMPH,PrecipitationIn,Events,Conditions,WindDirDegrees,DateUTC
12:15 AM,24.8,21.2,86,29.44,10.0,Calm,Calm,-,N/A,,Clear,0,2011-11-12 06:15:00
12:35 AM,26.6,23.0,86,29.45,10.0,South,4.6,-,N/A,,Clear,170,2011-11-12 06:35:00
12:55 AM,30.2,26.6,86,29.44,10.0,SSE,6.9,-,N/A,,Clear,160,2011-11-12 06:55:00
1:15 AM,30.2,24.8,80,29.44,10.0,Calm,Calm,-,N/A,,Clear,0,2011-11-12 07:15:00
1:35 AM,30.2,24.8,80,29.44,10.0,SSE,4.6,-,N/A,,Clear,150,2011-11-12 07:35:00
1:55 AM,30.2,24.8,80,29.43,10.0,Calm,Calm,-,N/A,,Clear,0,2011-11-12 07:55:00
2:15 AM,30.2,24.8,80,29.43,10.0,Calm,Calm,-,N/A,,Clear,0,2011-11-12 08:15:00
2:35 AM,30.2,24.8,80,29.42,10.0,Calm,Calm,-,N/A,,Clear,0,2011-11-12 08:35:00
2:55 AM,28.4,24.8,86,29.42,10.0,Calm,Calm,-,N/A,,Clear,0,2011-11-12 08:55:00
3:15 AM,30.2,24.8,80,29.41,10.0,SSE,6.9,-,N/A,,Clear,160,2011-11-12 09:15:00
3:55 AM,30.2,24.8,80,29.39,10.0,SSE,5.8,-,N/A,,Clear,160,2011-11-12 09:55:00
4:15 AM,30.2,24.8,80,29.40,10.0,Calm,Calm,-,N/A,,Clear,0,2011-11-12 10:15:00
4:35 AM,30.2,24.8,80,29.39,10.0,SSE,6.9,-,N/A,,Clear,160,2011-11-12 10:35:00
4:55 AM,30.2,24.8,80,29.38,10.0,SSE,5.8,-,N/A,,Clear,150,2011-11-12 10:55:00
5:15 AM,33.8,26.6,75,29.38,10.0,SSE,5.8,-,N/A,,Clear,160,2011-11-12 11:15:00
5:35 AM,32.0,24.8,75,29.38,10.0,SSE,6.9,-,N/A,,Clear,150,2011-11-12 11:35:00
6:15 AM,33.8,28.4,81,29.37,10.0,Calm,Calm,-,N/A,,Clear,0,2011-11-12 12:15:00
6:55 AM,35.6,28.4,75,29.37,10.0,SSE,8.1,-,N/A,,Clear,150,2011-11-12 12:55:00
7:15 AM,35.6,26.6,70,29.37,10.0,SSE,6.9,-,N/A,,Clear,160,2011-11-12 13:15:00
7:35 AM,35.6,23.0,60,29.36,10.0,SSE,8.1,-,N/A,,Clear,160,2011-11-12 13:35:00
7:55 AM,33.8,24.8,70,29.36,10.0,SSE,6.9,-,N/A,,Clear,160,2011-11-12 13:55:00
8:15 AM,35.6,24.8,65,29.36,10.0,SSE,5.8,-,N/A,,Clear,150,2011-11-12 14:15:00
8:35 AM,39.2,24.8,56,29.35,10.0,SSE,6.9,-,N/A,,Clear,150,2011-11-12 14:35:00
8:55 AM,42.8,26.6,53,29.35,10.0,Calm,Calm,-,N/A,,Clear,0,2011-11-12 14:55:00
9:15 AM,44.6,24.8,46,29.35,10.0,Calm,Calm,-,N/A,,Clear,0,2011-11-12 15:15:00
9:35 AM,46.4,24.8,43,29.35,10.0,Calm,Calm,-,N/A,,Clear,0,2011-11-12 15:35:00
9:55 AM,46.4,24.8,43,29.35,10.0,South,3.5,-,N/A,,Clear,180,2011-11-12 15:55:00
10:15 AM,44.6,24.8,46,29.34,10.0,Calm,Calm,-,N/A,,Clear,0,2011-11-12 16:15:00
10:35 AM,46.4,24.8,43,29.35,10.0,SSE,3.5,-,N/A,,Clear,160,2011-11-12 16:35:00
10:55 AM,46.4,24.8,43,29.34,10.0,SSE,4.6,-,N/A,,Clear,150,2011-11-12 16:55:00
11:15 AM,50.0,30.2,47,29.33,10.0,SE,4.6,-,N/A,,Clear,140,2011-11-12 17:15:00
11:35 AM,51.8,37.4,58,29.32,10.0,Calm,Calm,-,N/A,,Clear,0,2011-11-12 17:35:00
11:55 AM,51.8,35.6,54,29.30,10.0,Calm,Calm,-,N/A,,Clear,0,2011-11-12 17:55:00
12:15 PM,51.8,33.8,50,29.29,10.0,Calm,Calm,-,N/A,,Clear,0,2011-11-12 18:15:00
12:35 PM,51.8,32.0,47,29.28,10.0,Calm,Calm,-,N/A,,Clear,0,2011-11-12 18:35:00
12:55 PM,53.6,30.2,41,29.26,10.0,ESE,4.6,-,N/A,,Clear,120,2011-11-12 18:55:00
1:15 PM,53.6,30.2,41,29.26,10.0,ESE,6.9,-,N/A,,Clear,120,2011-11-12 19:15:00
1:35 PM,53.6,33.8,47,29.24,10.0,ESE,3.5,-,N/A,,Clear,120,2011-11-12 19:35:00
1:55 PM,55.4,33.8,44,29.22,10.0,ESE,5.8,-,N/A,,Clear,120,2011-11-12 19:55:00
2:15 PM,55.4,33.8,44,29.21,10.0,East,4.6,-,N/A,,Clear,100,2011-11-12 20:15:00
2:35 PM,57.2,33.8,41,29.18,10.0,ESE,5.8,-,N/A,,Clear,110,2011-11-12 20:35:00
2:55 PM,55.4,35.6,47,29.18,10.0,Calm,Calm,-,N/A,,Clear,0,2011-11-12 20:55:00
3:15 PM,55.4,35.6,47,29.18,10.0,Calm,Calm,-,N/A,,Clear,0,2011-11-12 21:15:00
3:35 PM,53.6,35.6,51,29.18,10.0,Calm,Calm,-,N/A,,Clear,0,2011-11-12 21:35:00
3:55 PM,53.6,30.2,41,29.17,10.0,SE,6.9,-,N/A,,Clear,140,2011-11-12 21:55:00
4:15 PM,51.8,26.6,38,29.17,10.0,South,4.6,-,N/A,,Clear,180,2011-11-12 22:15:00
4:35 PM,48.2,26.6,43,29.17,10.0,South,5.8,-,N/A,,Clear,180,2011-11-12 22:35:00
4:55 PM,48.2,35.6,62,29.16,10.0,SSE,3.5,-,N/A,,Clear,160,2011-11-12 22:55:00
5:15 PM,44.6,26.6,49,29.16,10.0,SSE,3.5,-,N/A,,Clear,150,2011-11-12 23:15:00
5:35 PM,46.4,30.2,53,29.14,10.0,SSE,6.9,-,N/A,,Clear,160,2011-11-12 23:35:00
5:55 PM,44.6,24.8,46,29.14,10.0,SSE,4.6,-,N/A,,Clear,160,2011-11-12 23:55:00
6:15 PM,42.8,32.0,66,29.13,10.0,SSE,5.8,-,N/A,,Clear,150,2011-11-13 00:15:00
6:35 PM,46.4,32.0,57,29.13,10.0,SSE,5.8,-,N/A,,Clear,150,2011-11-13 00:35:00
6:55 PM,46.4,33.8,62,29.11,10.0,SSE,5.8,-,N/A,,Clear,150,2011-11-13 00:55:00
7:35 PM,39.2,24.8,56,29.10,10.0,SSW,4.6,-,N/A,,Clear,200,2011-11-13 01:35:00
8:15 PM,39.2,24.8,56,29.10,10.0,SSW,5.8,-,N/A,,Clear,210,2011-11-13 02:15:00
8:35 PM,39.2,26.6,61,29.11,10.0,SW,5.8,-,N/A,,Scattered Clouds,220,2011-11-13 02:35:00
8:55 PM,39.2,24.8,56,29.10,10.0,South,6.9,-,N/A,,Clear,190,2011-11-13 02:55:00
9:15 PM,39.2,24.8,56,29.09,10.0,South,5.8,-,N/A,,Clear,190,2011-11-13 03:15:00
9:35 PM,37.4,24.8,60,29.09,10.0,SSW,6.9,-,N/A,,Clear,210,2011-11-13 03:35:00
9:55 PM,39.2,26.6,61,29.09,10.0,SSW,8.1,-,N/A,,Clear,210,2011-11-13 03:55:00
10:15 PM,39.2,26.6,61,29.08,10.0,SSW,8.1,-,N/A,,Clear,210,2011-11-13 04:15:00
10:35 PM,39.2,24.8,56,29.07,10.0,SSW,6.9,-,N/A,,Clear,200,2011-11-13 04:35:00
10:55 PM,37.4,24.8,60,29.07,10.0,SSW,6.9,-,N/A,,Clear,200,2011-11-13 04:55:00
11:15 PM,37.4,26.6,65,29.08,10.0,SW,6.9,-,N/A,,Clear,220,2011-11-13 05:15:00
11:35 PM,37.4,28.4,70,29.08,10.0,SW,9.2,-,N/A,,Clear,220,2011-11-13 05:35:00
11:55 PM,37.4,24.8,60,29.07,10.0,WSW,4.6,-,N/A,,Clear,240,2011-11-13 05:55:00